Location: Borbetomagus
(49.6328°N, 8.3592°E)
Time: 16:33:30
(UTC+00:00)

NOSS 2-1 (C) - Pass Details

Date: 19 May 2025
Orbit: 378 x 1699 km, 63.3° (Epoch: 16 June)

Event Time Altitude Azimuth Distance (km) Brightness Sun altitude
Exits shadow 22:55:51 49° 271° (W) 541 3.2 -20.1°
Maximum altitude 22:56:23 58° 315° (NW) 477 3.2 -20.1°
Drops below altitude 10° 22:59:21 10° 36° (NE) 1,409 6.1 -20.2°
Sets 23:01:19 0° 41° (NE) 2,262 7.1 -20.2°
